AEE980 LGIR-LGAV

Flight info

Callsign AEE980
Flight time 0h 34m
Altitude 22000
Route EPALO UM749 MIL L617 SOREV
Aircraft A320/M-SDE3FGHIRWY/LB1

Departure

Time 2026-05-06 18:30
Airport Heraklion International Nikos Kazantzakis Airport (LGIR)

Arrival

Time 2026-05-06 19:04
Airport Athens Eleftherios Venizelos International Airport (LGAV)
Time Latitude Longitude Altitude Speed Heading
2026-05-06 18:02 35.33806 25.17411 84 ft 0 kts 274°
2026-05-06 18:21 35.33802 25.17432 88 ft 2 kts 281°
2026-05-06 18:22 35.33796 25.17461 87 ft 4 kts 290°
2026-05-06 18:22 35.33796 25.17464 84 ft 0 kts 291°
2026-05-06 18:25 35.33796 25.17463 84 ft 0 kts 291°
2026-05-06 18:25 35.33798 25.17461 87 ft 1 kts 306°
2026-05-06 18:25 35.33817 25.17458 86 ft 6 kts
2026-05-06 18:26 35.33858 25.17482 87 ft 7 kts 28°
2026-05-06 18:26 35.33897 25.17524 85 ft 8 kts 64°
2026-05-06 18:26 35.33904 25.17600 84 ft 10 kts 93°
2026-05-06 18:26 35.33899 25.17690 85 ft 11 kts 95°
2026-05-06 18:27 35.33893 25.17795 85 ft 13 kts 94°
2026-05-06 18:27 35.33884 25.17917 87 ft 16 kts 95°
2026-05-06 18:27 35.33874 25.18057 86 ft 17 kts 95°
2026-05-06 18:27 35.33863 25.18203 90 ft 17 kts 95°
2026-05-06 18:28 35.33851 25.18360 87 ft 21 kts 91°
2026-05-06 18:28 35.33838 25.18557 86 ft 25 kts 96°
2026-05-06 18:28 35.33822 25.18775 86 ft 27 kts 94°
2026-05-06 18:28 35.33839 25.18973 85 ft 22 kts 61°
2026-05-06 18:29 35.33903 25.18992 85 ft 11 kts 302°
2026-05-06 18:29 35.33914 25.18901 87 ft 13 kts 275°
2026-05-06 18:29 35.33941 25.18514 89 ft 81 kts 275°
2026-05-06 18:29 35.34005 25.17590 87 ft 134 kts 275°
2026-05-06 18:30 35.34094 25.16272 198 ft 166 kts 274°
2026-05-06 18:30 35.34176 25.14925 899 ft 155 kts 274°
2026-05-06 18:30 35.34408 25.13596 1280 ft 171 kts 306°
2026-05-06 18:30 35.35416 25.12764 1627 ft 191 kts 342°
2026-05-06 18:31 35.36793 25.12404 1892 ft 214 kts 350°
2026-05-06 18:31 35.38361 25.12101 2251 ft 240 kts 350°
2026-05-06 18:31 35.40073 25.11734 2832 ft 257 kts 348°
2026-05-06 18:31 35.41852 25.11281 3755 ft 262 kts 347°
2026-05-06 18:32 35.43617 25.10768 4675 ft 265 kts 346°
2026-05-06 18:32 35.45420 25.10197 5617 ft 268 kts 345°
2026-05-06 18:32 35.47229 25.09593 6563 ft 270 kts 345°
2026-05-06 18:32 35.49046 25.08969 7436 ft 273 kts 344°
2026-05-06 18:33 35.50884 25.08324 8313 ft 275 kts 344°
2026-05-06 18:33 35.52737 25.07668 9182 ft 278 kts 344°
2026-05-06 18:33 35.54586 25.07013 10029 ft 281 kts 344°
2026-05-06 18:33 35.56511 25.06332 10506 ft 298 kts 343°
2026-05-06 18:34 35.58586 25.05602 10722 ft 321 kts 343°
2026-05-06 18:34 35.60792 25.04824 11177 ft 333 kts 343°
2026-05-06 18:34 35.63042 25.04027 11872 ft 338 kts 343°
2026-05-06 18:34 35.65282 25.03232 12611 ft 341 kts 343°
2026-05-06 18:35 35.67578 25.02418 13367 ft 344 kts 343°
2026-05-06 18:35 35.69892 25.01602 14096 ft 347 kts 343°
2026-05-06 18:35 35.72227 25.00757 14759 ft 350 kts 341°
2026-05-06 18:35 35.74533 24.99783 15427 ft 352 kts 339°
2026-05-06 18:36 35.76831 24.98710 16078 ft 354 kts 337°
2026-05-06 18:36 35.79107 24.97599 16710 ft 357 kts 337°
2026-05-06 18:36 35.81422 24.96455 17354 ft 359 kts 337°
2026-05-06 18:36 35.83768 24.95307 17996 ft 362 kts 337°
2026-05-06 18:37 35.86119 24.94174 18598 ft 364 kts 337°
2026-05-06 18:37 35.87689 24.93425 18978 ft 366 kts 338°
2026-05-06 18:37 35.90899 24.91910 19734 ft 371 kts 338°
2026-05-06 18:37 35.93290 24.90787 20298 ft 374 kts 338°
2026-05-06 18:38 35.95740 24.89637 20875 ft 377 kts 338°
2026-05-06 18:38 35.98208 24.88477 21439 ft 380 kts 338°
2026-05-06 18:38 36.00695 24.87303 21942 ft 384 kts 338°
2026-05-06 18:38 36.03192 24.86122 22085 ft 387 kts 338°
2026-05-06 18:39 36.05736 24.84919 22110 ft 393 kts 338°
2026-05-06 18:39 36.08300 24.83710 22106 ft 395 kts 338°
2026-05-06 18:39 36.10874 24.82494 22105 ft 395 kts 338°
2026-05-06 18:40 36.15990 24.80062 22106 ft 395 kts 338°
2026-05-06 18:40 36.18562 24.78838 22108 ft 395 kts 338°
2026-05-06 18:40 36.21138 24.77614 22104 ft 395 kts 338°
2026-05-06 18:40 36.23707 24.76394 22107 ft 395 kts 338°
2026-05-06 18:41 36.26276 24.75174 22105 ft 395 kts 338°
2026-05-06 18:41 36.28817 24.73966 22106 ft 395 kts 338°
2026-05-06 18:41 36.31383 24.72742 22104 ft 395 kts 338°
2026-05-06 18:41 36.33950 24.71515 22105 ft 395 kts 338°
2026-05-06 18:42 36.36523 24.70285 22108 ft 395 kts 338°
2026-05-06 18:42 36.39093 24.69058 22108 ft 395 kts 338°
2026-05-06 18:42 36.41661 24.67831 22106 ft 395 kts 338°
2026-05-06 18:42 36.44233 24.66602 22109 ft 395 kts 338°
2026-05-06 18:43 36.46797 24.65377 22112 ft 395 kts 338°
2026-05-06 18:43 36.49367 24.64150 22108 ft 395 kts 338°
2026-05-06 18:43 36.51934 24.62927 22109 ft 395 kts 338°
2026-05-06 18:43 36.54498 24.61700 22110 ft 395 kts 338°
2026-05-06 18:44 36.57034 24.60479 22105 ft 395 kts 338°
2026-05-06 18:44 36.59599 24.59243 22108 ft 395 kts 338°
2026-05-06 18:44 36.62173 24.58004 22105 ft 395 kts 338°
2026-05-06 18:44 36.64742 24.56769 22106 ft 395 kts 338°
2026-05-06 18:45 36.67311 24.55536 22107 ft 395 kts 338°
2026-05-06 18:45 36.69847 24.54321 22104 ft 395 kts 338°
2026-05-06 18:45 36.72415 24.53086 22103 ft 395 kts 338°
2026-05-06 18:45 36.74121 24.52277 22103 ft 395 kts 340°
2026-05-06 18:46 36.77674 24.51157 22101 ft 396 kts 346°
2026-05-06 18:46 36.80365 24.50431 22101 ft 396 kts 346°
2026-05-06 18:46 36.82155 24.49949 22100 ft 396 kts 346°
2026-05-06 18:46 36.84847 24.49220 22099 ft 396 kts 346°
2026-05-06 18:47 36.87541 24.48486 22102 ft 396 kts 346°
2026-05-06 18:47 36.90235 24.47749 22103 ft 396 kts 346°
2026-05-06 18:47 36.92926 24.47015 22102 ft 396 kts 346°
2026-05-06 18:47 36.95627 24.46277 22101 ft 396 kts 346°
2026-05-06 18:48 36.98326 24.45542 22101 ft 396 kts 346°
2026-05-06 18:48 37.00983 24.44819 22101 ft 396 kts 346°
2026-05-06 18:48 37.03682 24.44084 22099 ft 396 kts 346°
2026-05-06 18:48 37.06379 24.43349 22099 ft 396 kts 346°
2026-05-06 18:49 37.09071 24.42614 22098 ft 396 kts 346°
2026-05-06 18:49 37.11774 24.41875 22098 ft 396 kts 346°
2026-05-06 18:49 37.14456 24.41147 22097 ft 392 kts 346°
2026-05-06 18:49 37.17038 24.40449 21999 ft 378 kts 346°
2026-05-06 18:50 37.19587 24.39757 21549 ft 373 kts 346°
2026-05-06 18:50 37.22151 24.39057 20791 ft 378 kts 346°
2026-05-06 18:50 37.24740 24.38350 20060 ft 381 kts 346°
2026-05-06 18:50 37.27346 24.37641 19341 ft 384 kts 346°
2026-05-06 18:51 37.29948 24.36931 18644 ft 386 kts 346°
2026-05-06 18:51 37.32596 24.36209 17841 ft 389 kts 346°
2026-05-06 18:51 37.35218 24.35492 16993 ft 391 kts 346°
2026-05-06 18:51 37.37893 24.34760 16152 ft 394 kts 346°
2026-05-06 18:52 37.40585 24.34022 15419 ft 394 kts 346°
2026-05-06 18:52 37.43221 24.33299 15174 ft 380 kts 346°
2026-05-06 18:52 37.45760 24.32604 15053 ft 363 kts 346°
2026-05-06 18:52 37.48168 24.31946 15082 ft 345 kts 346°
2026-05-06 18:53 37.50472 24.31314 15084 ft 342 kts 346°
2026-05-06 18:53 37.52795 24.30675 15086 ft 341 kts 346°
2026-05-06 18:53 37.55115 24.30041 14940 ft 338 kts 347°
2026-05-06 18:53 37.57452 24.29682 14457 ft 337 kts 354°
2026-05-06 18:54 37.59772 24.29437 13998 ft 336 kts 354°
2026-05-06 18:54 37.62101 24.29187 13497 ft 334 kts 354°
2026-05-06 18:54 37.64419 24.28938 13001 ft 333 kts 354°
2026-05-06 18:54 37.66727 24.28690 12526 ft 331 kts 354°
2026-05-06 18:55 37.69022 24.28443 12049 ft 330 kts 354°
2026-05-06 18:55 37.71304 24.28197 11585 ft 328 kts 354°
2026-05-06 18:55 37.73579 24.27952 11138 ft 327 kts 354°
2026-05-06 18:55 37.75810 24.27710 10704 ft 325 kts 354°
2026-05-06 18:56 37.78075 24.27464 10307 ft 323 kts 354°
2026-05-06 18:56 37.80295 24.27225 9844 ft 322 kts 354°
2026-05-06 18:56 37.82564 24.26979 9065 ft 331 kts 354°
2026-05-06 18:56 37.84881 24.26729 8337 ft 336 kts 354°
2026-05-06 18:57 37.87159 24.26482 8077 ft 327 kts 354°
2026-05-06 18:57 37.89384 24.26243 8008 ft 312 kts 354°
2026-05-06 18:57 37.91515 24.26013 7709 ft 307 kts 354°
2026-05-06 18:57 37.93675 24.25776 7183 ft 311 kts 354°
2026-05-06 18:58 37.95795 24.25545 7029 ft 300 kts 354°
2026-05-06 18:58 37.97882 24.25318 6508 ft 304 kts 354°
2026-05-06 18:58 37.99982 24.24918 5754 ft 314 kts 342°
2026-05-06 18:58 38.02030 24.23862 5187 ft 317 kts 336°
2026-05-06 18:59 38.04034 24.22755 4829 ft 312 kts 336°
2026-05-06 18:59 38.06009 24.21546 4209 ft 315 kts 325°
2026-05-06 18:59 38.07668 24.19862 4033 ft 303 kts 319°
2026-05-06 18:59 38.09160 24.18030 3622 ft 299 kts 304°
2026-05-06 19:00 38.09940 24.15578 2884 ft 306 kts 277°
2026-05-06 19:00 38.10015 24.12863 2238 ft 309 kts 259°
2026-05-06 19:00 38.09145 24.10463 2040 ft 295 kts 227°
2026-05-06 19:00 38.07580 24.08890 1912 ft 282 kts 214°
2026-05-06 19:01 38.06061 24.07438 1925 ft 265 kts 218°
2026-05-06 19:01 38.04656 24.06061 1931 ft 247 kts 217°
2026-05-06 19:01 38.03368 24.04824 1931 ft 218 kts 217°
2026-05-06 19:01 38.02208 24.03717 1923 ft 201 kts 216°
2026-05-06 19:02 38.01124 24.02682 1825 ft 186 kts 216°
2026-05-06 19:02 38.00134 24.01737 1596 ft 171 kts 217°
2026-05-06 19:02 37.99217 24.00863 1393 ft 157 kts 217°
2026-05-06 19:02 37.98383 24.00067 1187 ft 144 kts 217°
2026-05-06 19:03 37.97597 23.99319 999 ft 142 kts 217°
2026-05-06 19:03 37.96806 23.98564 800 ft 142 kts 218°
2026-05-06 19:03 37.96010 23.97806 605 ft 143 kts 218°
2026-05-06 19:03 37.95211 23.97045 404 ft 144 kts 218°
2026-05-06 19:04 37.94425 23.96296 293 ft 132 kts 217°
2026-05-06 19:04 37.93888 23.95784 279 ft 53 kts 217°
2026-05-06 19:04 37.93687 23.95595 281 ft 35 kts 216°
2026-05-06 19:04 37.93516 23.95382 286 ft 35 kts 241°
2026-05-06 19:05 37.93458 23.95210 294 ft 15 kts 265°
2026-05-06 19:05 37.93529 23.95171 299 ft 13 kts 25°
2026-05-06 19:05 37.93621 23.95231 298 ft 15 kts 349°
2026-05-06 19:05 37.93707 23.95199 299 ft 15 kts 11°
2026-05-06 19:06 37.93804 23.95282 302 ft 19 kts 37°
2026-05-06 19:06 37.93896 23.95328 301 ft 10 kts 332°
2026-05-06 19:06 37.93950 23.95250 302 ft 12 kts 307°
2026-05-06 19:06 37.94010 23.95215 302 ft 8 kts 15°
2026-05-06 19:07 37.94044 23.95245 301 ft 1 kts 37°
2026-05-06 19:07 37.94050 23.95251 301 ft 0 kts 35°
2026-05-06 19:07 37.94052 23.95252 302 ft 0 kts 36°